Date String (YYYY-MM-DD hh:mm:ss) UTC,Instrument flags,absolute air pressure of the measurement (hPa),sample flow rate (lpm),inlet stack bypass flow (lpm),air temperature of the measurement (°C),ambient temperature measured by the external sensor (°C),aerosol sample conditioner tube jacket temperature (°C),OPC LED temperature (°C),internal box temperature (°C),relative humidity of the measurement (%),span deviation,mass concentration of particles derived from Lorenz-Mie calculation of OPC scattering (μg/m³),mass concentration of particles derived from Lorenz-Mie calculation of OPC scattering (μg/m³),mass concentration of particles derived from Lorenz-Mie calculation of OPC scattering (μg/m³)
DateTimeUTC,F1_M11,P_M11,Q1_M11,Q2_M11,T1_M11,T2_M11,T3_M11,T4_M11,T5_M11,U1_M11,ZSPAN_M11,X0_M11,X2_M11,X1_M11
2023-08-08 14:00:00,SystemResetWarning,0831.6,5.01,000.00,030.0,028.8,000.0,038.6,031.6,27.9,0000.5,0011.36,0005.95,0005.01
2023-08-08 14:01:00,SystemResetWarning,0831.6,5.00,000.00,030.0,028.8,000.0,038.6,031.6,28.2,0000.3,0011.19,0005.90,0005.00
2023-08-08 14:02:00,SystemResetWarning,0831.6,4.99,000.00,030.1,028.8,000.0,038.6,031.7,29.0,0000.3,0011.44,0005.95,0005.01
2023-08-08 14:03:00,SystemResetWarning,0831.5,4.98,000.00,030.1,027.9,000.0,038.5,031.6,28.6,0000.5,0011.63,0006.01,0005.02
2023-08-08 14:04:00,SystemResetWarning,0831.5,5.00,000.00,030.0,026.1,000.0,038.4,031.3,29.2,0000.5,0011.86,0005.99,0005.01
2023-08-08 14:05:00,SystemResetWarning,0831.5,5.01,000.00,029.9,025.4,000.0,038.3,031.1,29.8,-000.2,0011.75,0005.93,0004.99
2023-08-08 14:06:00,SystemResetWarning,0831.5,5.01,000.00,029.8,025.6,000.0,038.3,030.9,28.9,-000.4,0011.95,0005.90,0004.98
2023-08-08 14:07:00,SystemResetWarning,0831.5,5.00,000.00,029.7,025.9,000.0,038.3,030.9,28.5,0000.1,0011.80,0005.84,0004.97
2023-08-08 14:08:00,SystemResetWarning,0831.6,5.01,000.00,029.7,026.3,000.0,038.3,031.0,28.6,0000.4,0011.58,0005.76,0004.94
2023-08-08 14:09:00,SystemResetWarning,0831.6,5.00,000.00,029.6,026.7,000.0,038.3,031.0,29.5,0000.6,0011.51,0005.77,0004.94
2023-08-08 14:10:00,SystemResetWarning,0831.6,5.00,000.00,029.6,027.0,000.0,038.3,031.1,29.8,0000.7,0011.65,0005.80,0004.95
2023-08-08 14:11:00,SystemResetWarning,0831.6,5.00,000.00,029.6,027.3,000.0,038.3,031.1,30.2,0000.4,0012.07,0005.85,0004.97
2023-08-08 14:12:00,SystemResetWarning,0831.6,4.99,000.00,029.6,027.5,000.0,038.3,031.1,29.8,0000.5,0012.12,0005.86,0004.98
2023-08-08 14:13:00,SystemResetWarning,0831.6,4.99,000.00,029.6,027.7,000.0,038.3,031.2,29.5,0000.4,0012.20,0005.87,0004.99
2023-08-08 14:14:00,SystemResetWarning,0831.7,5.00,000.00,029.6,027.9,000.0,038.3,031.2,29.4,0000.3,0012.27,0005.81,0004.98
2023-08-08 14:15:00,SystemResetWarning,0831.7,5.01,000.00,029.7,028.0,000.0,038.3,031.2,29.7,-000.3,0012.87,0005.83,0004.98
2023-08-08 14:16:00,SystemResetWarning,0831.7,5.00,000.00,029.7,028.1,000.0,038.3,031.3,29.5,-000.4,0012.88,0005.91,0004.99
2023-08-08 14:17:00,SystemResetWarning,0831.7,5.00,000.00,029.7,028.2,000.0,038.3,031.3,29.2,-000.2,0013.03,0005.96,0005.00
2023-08-08 14:18:00,SystemResetWarning,0831.7,4.99,000.00,029.7,028.3,000.0,038.3,031.3,28.5,-000.5,0013.15,0005.96,0005.00
2023-08-08 14:19:00,SystemResetWarning,0831.7,5.00,000.00,029.7,028.4,000.0,038.3,031.3,28.0,-000.1,0014.02,0006.00,0005.01
2023-08-08 14:20:00,SystemResetWarning,0831.7,5.00,000.00,029.7,028.4,000.0,038.4,031.3,28.4,0000.0,0014.24,0005.99,0005.02
2023-08-08 14:21:00,SystemResetWarning,0832.2,5.00,000.00,029.8,028.5,000.0,038.4,031.4,29.0,0000.0,0014.25,0005.93,0005.02
2023-08-08 14:22:00,SystemResetWarning,0832.2,5.01,000.00,029.8,028.5,000.0,038.4,031.4,28.5,-001.4,0013.55,0005.86,0005.00
2023-08-08 14:23:00,SystemResetWarning,0832.2,5.01,000.00,029.8,028.6,000.0,038.4,031.4,29.0,-001.3,0013.61,0005.88,0005.01
2023-08-08 14:24:00,SystemResetWarning,0832.0,4.99,000.00,029.8,028.6,000.0,038.4,031.4,29.0,0000.0,0013.39,0005.87,0005.02
2023-08-08 14:25:00,SystemResetWarning,0831.8,5.00,000.00,029.8,028.6,000.0,038.4,031.5,28.8,-000.4,0013.28,0005.89,0005.02
2023-08-08 14:26:00,SystemResetWarning,0831.7,4.99,000.00,029.9,028.7,000.0,038.4,031.5,28.6,-000.0,0013.74,0005.90,0005.03
2023-08-08 14:27:00,SystemResetWarning,0831.8,4.99,000.00,029.9,028.4,000.0,038.4,031.5,28.5,0000.1,0012.95,0005.90,0005.03
2023-08-08 14:28:00,SystemResetWarning,0832.2,5.00,000.00,029.9,026.8,000.0,038.3,031.3,28.8,-000.1,0012.25,0005.85,0005.03
2023-08-08 14:29:00,SystemResetWarning,0832.2,5.00,000.00,029.8,025.9,000.0,038.2,031.2,29.1,-000.1,0013.31,0005.89,0005.03
2023-08-08 14:30:00,SystemResetWarning,0831.8,5.01,000.00,029.7,026.0,000.0,038.2,031.0,29.1,-000.2,0013.51,0005.96,0005.03
2023-08-08 14:31:00,SystemResetWarning,0831.7,5.00,000.00,029.6,026.3,000.0,038.2,030.9,29.4,0000.5,0013.73,0005.99,0005.02
2023-08-08 14:32:00,SystemResetWarning,0831.7,4.99,000.00,029.6,026.6,000.0,038.2,031.0,29.9,0000.9,0013.85,0006.01,0005.02
2023-08-08 14:33:00,SystemResetWarning,0831.7,5.00,000.00,029.6,026.9,000.0,038.2,031.0,30.0,0001.2,0013.96,0006.03,0005.03
2023-08-08 14:34:00,SystemResetWarning,0831.6,5.01,000.00,029.6,027.2,000.0,038.2,031.1,30.2,0000.8,0014.11,0006.05,0005.04
2023-08-08 14:35:00,SystemResetWarning,0831.6,5.01,000.00,029.6,027.5,000.0,038.2,031.1,30.2,0000.9,0014.22,0006.05,0005.04
2023-08-08 14:36:00,SystemResetWarning,0831.7,5.00,000.00,029.6,027.7,000.0,038.2,031.2,30.8,0000.8,0014.36,0006.07,0005.03
2023-08-08 14:37:00,SystemResetWarning,0831.7,5.00,000.00,029.6,027.9,000.0,038.3,031.2,31.4,0000.7,0013.33,0006.05,0005.04
2023-08-08 14:38:00,SystemResetWarning,0831.7,5.00,000.00,029.6,028.0,000.0,038.3,031.2,32.0,0000.8,0013.43,0006.05,0005.04
2023-08-08 14:39:00,SystemResetWarning,0832.0,5.00,000.00,029.6,028.1,000.0,038.3,031.3,32.0,0002.1,0013.44,0006.06,0005.05
2023-08-08 14:40:00,SystemResetWarning,0832.2,5.00,000.00,029.7,028.2,000.0,038.3,031.3,31.8,0002.6,0012.94,0006.06,0005.05
2023-08-08 14:41:00,SystemResetWarning,0831.8,5.00,000.00,029.7,028.3,000.0,038.3,031.3,31.7,0002.7,0012.21,0006.07,0005.06
2023-08-08 14:42:00,SystemResetWarning,0831.8,5.00,000.00,029.7,028.4,000.0,038.3,031.4,30.8,0002.5,0011.41,0006.05,0005.05
2023-08-08 14:43:00,SystemResetWarning,0832.0,5.00,000.00,029.7,028.5,000.0,038.3,031.4,30.5,0002.4,0011.24,0006.04,0005.05
2023-08-08 14:44:00,SystemResetWarning,0832.2,4.99,000.00,029.8,028.5,000.0,038.3,031.4,30.4,0002.0,0011.19,0006.05,0005.04
2023-08-08 14:45:00,SystemResetWarning,0832.1,4.99,000.00,029.8,028.6,000.0,038.3,031.4,30.3,0002.3,0011.16,0006.05,0005.04
2023-08-08 14:46:00,SystemResetWarning,0831.7,4.99,000.00,029.8,027.9,000.0,038.3,031.4,30.3,0002.4,0010.80,0006.01,0005.02
2023-08-08 14:47:00,SystemResetWarning,0831.7,5.00,000.00,029.8,026.4,000.0,038.2,031.2,29.8,0002.2,0010.67,0006.01,0005.02
2023-08-08 14:48:00,SystemResetWarning,0831.7,5.01,000.00,029.7,026.2,000.0,038.1,031.1,29.9,0002.1,0010.70,0006.00,0005.01
2023-08-08 14:49:00,SystemResetWarning,0831.7,5.00,000.00,029.6,026.4,000.0,038.1,030.9,30.0,0000.6,0010.36,0005.97,0005.00
2023-08-08 14:50:00,SystemResetWarning,0831.7,4.99,000.00,029.6,026.7,000.0,038.1,031.0,30.1,0000.0,0010.10,0005.92,0004.99
2023-08-08 14:51:00,SystemResetWarning,0831.7,5.00,000.00,029.6,027.0,000.0,038.2,031.0,30.5,0000.0,0010.42,0005.89,0004.98
2023-08-08 14:52:00,SystemResetWarning,0831.7,5.01,000.00,029.6,027.2,000.0,038.2,031.1,31.1,0000.3,0010.45,0005.84,0004.96
2023-08-08 14:53:00,SystemResetWarning,0831.7,5.00,000.00,029.6,027.5,000.0,038.2,031.2,30.9,0000.3,0010.53,0005.83,0004.96
2023-08-08 14:54:00,SystemResetWarning,0831.7,5.00,000.00,029.6,027.7,000.0,038.2,031.2,31.0,0000.1,0010.72,0005.89,0004.97
2023-08-08 14:55:00,SystemResetWarning,0831.7,5.00,000.00,029.6,027.9,000.0,038.2,031.2,30.8,-000.1,0010.68,0005.88,0004.97
2023-08-08 14:56:00,SystemResetWarning,0831.7,5.00,000.00,029.6,028.1,000.0,038.2,031.3,30.8,0000.2,0010.83,0005.85,0004.96
2023-08-08 14:57:00,SystemResetWarning,0831.7,5.00,000.00,029.7,028.2,000.0,038.2,031.3,31.1,-000.1,0011.75,0005.87,0004.96
2023-08-08 14:58:00,SystemResetWarning,0831.7,5.00,000.00,029.7,028.3,000.0,038.3,031.3,31.2,0000.4,0012.01,0005.88,0004.96
2023-08-08 14:59:00,SystemResetWarning,0831.7,5.00,000.00,029.7,028.4,000.0,038.3,031.4,31.4,0000.3,0012.24,0005.92,0004.96
